Time,TemperatureF,DewpointF,PressureIn,WindDirection,WindDirectionDegrees,WindSpeedMPH,WindSpeedGustMPH,Humidity,HourlyPrecipIn,Conditions,Clouds,dailyrainin,SoftwareType,DateUTC
2013-09-05 00:08:00,59.2,59.0,30.03,NW,321,0.0,1.0,100,0.00,,,0.00,weatherlink.com 1.10,2013-09-05 07:08:00,
2013-09-05 00:23:00,58.7,59.0,30.02,NW,321,0.0,1.0,100,0.00,,,0.00,weatherlink.com 1.10,2013-09-05 07:23:00,
2013-09-05 00:38:00,59.0,59.0,30.02,NW,321,0.0,1.0,100,0.00,,,0.00,weatherlink.com 1.10,2013-09-05 07:38:00,
2013-09-05 00:53:00,59.3,59.0,30.02,NW,321,0.0,1.0,100,0.00,,,0.00,weatherlink.com 1.10,2013-09-05 07:53:00,
2013-09-05 01:08:00,58.7,59.0,30.03,NW,321,0.0,1.0,100,0.00,,,0.00,weatherlink.com 1.10,2013-09-05 08:08:00,
2013-09-05 01:23:00,58.7,59.0,30.02,NW,321,0.0,0.0,100,0.00,,,0.00,weatherlink.com 1.10,2013-09-05 08:23:00,
2013-09-05 01:38:00,58.1,58.0,30.02,NW,321,0.0,1.0,100,0.00,,,0.00,weatherlink.com 1.10,2013-09-05 08:38:00,
2013-09-05 01:53:00,58.4,58.0,30.01,NW,321,0.0,1.0,100,0.00,,,0.00,weatherlink.com 1.10,2013-09-05 08:53:00,
2013-09-05 02:08:00,58.1,58.0,30.01,NW,321,0.0,0.0,100,0.00,,,0.00,weatherlink.com 1.10,2013-09-05 09:08:00,
2013-09-05 02:23:00,57.0,55.0,30.01,North,9,1.0,2.0,91,0.00,,,0.00,weatherlink.com 1.10,2013-09-05 09:23:00,
2013-09-05 02:38:00,56.4,54.0,30.01,North,9,2.0,3.0,91,0.00,,,0.00,weatherlink.com 1.10,2013-09-05 09:38:00,
2013-09-05 02:53:00,55.8,54.0,30.01,North,9,0.0,2.0,92,0.00,,,0.00,weatherlink.com 1.10,2013-09-05 09:53:00,
2013-09-05 03:08:00,55.7,54.0,30.01,North,9,1.0,4.0,93,0.00,,,0.00,weatherlink.com 1.10,2013-09-05 10:08:00,
2013-09-05 03:23:00,56.9,55.0,30.02,North,9,3.0,6.0,93,0.00,,,0.00,weatherlink.com 1.10,2013-09-05 10:23:00,
2013-09-05 03:38:00,57.9,56.0,30.01,North,9,4.0,6.0,93,0.00,,,0.00,weatherlink.com 1.10,2013-09-05 10:38:00,
2013-09-05 03:53:00,58.1,56.0,30.01,North,9,4.0,5.0,92,0.00,,,0.00,weatherlink.com 1.10,2013-09-05 10:53:00,
2013-09-05 04:08:00,58.2,56.0,30.01,North,9,6.0,8.0,92,0.00,,,0.00,weatherlink.com 1.10,2013-09-05 11:08:00,
2013-09-05 04:23:00,59.0,57.0,30.01,North,9,2.0,9.0,92,0.00,,,0.00,weatherlink.com 1.10,2013-09-05 11:23:00,
2013-09-05 04:38:00,57.9,55.0,30.01,North,9,3.0,5.0,91,0.00,,,0.00,weatherlink.com 1.10,2013-09-05 11:38:00,
2013-09-05 04:53:00,57.7,55.0,30.02,North,9,2.0,8.0,91,0.00,,,0.00,weatherlink.com 1.10,2013-09-05 11:53:00,
2013-09-05 05:08:00,58.4,56.0,30.02,North,9,1.0,6.0,92,0.00,,,0.00,weatherlink.com 1.10,2013-09-05 12:08:00,
2013-09-05 05:23:00,58.3,56.0,30.02,North,9,3.0,5.0,91,0.00,,,0.00,weatherlink.com 1.10,2013-09-05 12:23:00,
2013-09-05 05:38:00,57.7,55.0,30.02,North,9,2.0,6.0,91,0.00,,,0.00,weatherlink.com 1.10,2013-09-05 12:38:00,
2013-09-05 05:53:00,56.5,54.0,30.02,North,9,3.0,5.0,91,0.00,,,0.00,weatherlink.com 1.10,2013-09-05 12:53:00,
2013-09-05 06:24:00,55.8,54.0,30.03,North,9,3.0,6.0,92,0.00,,,0.00,weatherlink.com 1.10,2013-09-05 13:24:00,
2013-09-05 06:38:00,55.7,54.0,30.03,North,9,3.0,4.0,92,0.00,,,0.00,weatherlink.com 1.10,2013-09-05 13:38:00,
2013-09-05 06:53:00,55.1,53.0,30.04,North,9,3.0,4.0,93,0.00,,,0.00,weatherlink.com 1.10,2013-09-05 13:53:00,
2013-09-05 07:08:00,56.3,54.0,30.04,North,9,3.0,4.0,93,0.00,,,0.00,weatherlink.com 1.10,2013-09-05 14:08:00,
2013-09-05 07:24:00,57.1,55.0,30.05,North,9,2.0,4.0,93,0.00,,,0.00,weatherlink.com 1.10,2013-09-05 14:24:00,
2013-09-05 07:39:00,58.2,56.0,30.05,North,9,0.0,1.0,93,0.00,,,0.00,weatherlink.com 1.10,2013-09-05 14:39:00,
2013-09-05 07:54:00,61.0,59.0,30.05,North,9,1.0,4.0,92,0.00,,,0.00,weatherlink.com 1.10,2013-09-05 14:54:00,
2013-09-05 08:09:00,61.2,58.0,30.05,North,9,1.0,6.0,88,0.00,,,0.00,weatherlink.com 1.10,2013-09-05 15:09:00,
2013-09-05 08:24:00,62.1,59.0,30.06,North,9,3.0,5.0,88,0.00,,,0.00,weatherlink.com 1.10,2013-09-05 15:24:00,
2013-09-05 08:39:00,63.3,59.0,30.06,NW,325,1.0,7.0,87,0.00,,,0.00,weatherlink.com 1.10,2013-09-05 15:39:00,
2013-09-05 08:54:00,63.3,59.0,30.06,NW,321,5.0,7.0,85,0.00,,,0.00,weatherlink.com 1.10,2013-09-05 15:54:00,
2013-09-05 09:09:00,63.9,59.0,30.06,NW,314,7.0,11.0,83,0.00,,,0.00,weatherlink.com 1.10,2013-09-05 16:09:00,
2013-09-05 09:24:00,63.7,59.0,30.05,NW,321,4.0,11.0,83,0.00,,,0.00,weatherlink.com 1.10,2013-09-05 16:24:00,
2013-09-05 09:39:00,63.8,58.0,30.06,NNW,339,6.0,12.0,82,0.00,,,0.00,weatherlink.com 1.10,2013-09-05 16:39:00,
2013-09-05 09:54:00,63.9,58.0,30.06,NNW,333,5.0,14.0,82,0.00,,,0.00,weatherlink.com 1.10,2013-09-05 16:54:00,
2013-09-05 10:09:00,65.0,59.0,30.06,WNW,294,5.0,13.0,81,0.00,,,0.00,weatherlink.com 1.10,2013-09-05 17:09:00,
2013-09-05 10:24:00,65.2,59.0,30.07,NW,306,10.0,18.0,80,0.00,,,0.00,weatherlink.com 1.10,2013-09-05 17:24:00,
2013-09-05 10:39:00,66.0,59.0,30.06,North,355,9.0,15.0,79,0.00,,,0.00,weatherlink.com 1.10,2013-09-05 17:39:00,
2013-09-05 10:55:00,66.3,59.0,30.07,WNW,297,4.0,17.0,76,0.00,,,0.00,weatherlink.com 1.10,2013-09-05 17:55:00,
2013-09-05 11:10:00,66.4,59.0,30.07,WNW,303,8.0,15.0,77,0.00,,,0.00,weatherlink.com 1.10,2013-09-05 18:10:00,
2013-09-05 11:25:00,67.2,60.0,30.07,North,9,4.0,15.0,78,0.00,,,0.00,weatherlink.com 1.10,2013-09-05 18:25:00,
2013-09-05 11:40:00,67.3,60.0,30.07,NW,315,6.0,15.0,77,0.00,,,0.00,weatherlink.com 1.10,2013-09-05 18:40:00,
2013-09-05 11:55:00,67.5,59.0,30.07,NW,313,14.0,17.0,75,0.00,,,0.00,weatherlink.com 1.10,2013-09-05 18:55:00,
2013-09-05 12:10:00,66.3,59.0,30.07,NW,306,12.0,19.0,77,0.00,,,0.00,weatherlink.com 1.10,2013-09-05 19:10:00,
2013-09-05 12:25:00,66.9,59.0,30.08,NW,323,7.0,17.0,77,0.00,,,0.00,weatherlink.com 1.10,2013-09-05 19:25:00,
2013-09-05 12:40:00,66.8,59.0,30.07,NNW,329,7.0,18.0,77,0.00,,,0.00,weatherlink.com 1.10,2013-09-05 19:40:00,
2013-09-05 12:55:00,68.5,60.0,30.07,WNW,290,3.0,13.0,74,0.00,,,0.00,weatherlink.com 1.10,2013-09-05 19:55:00,
2013-09-05 13:10:00,68.8,60.0,30.07,North,349,5.0,15.0,73,0.00,,,0.00,weatherlink.com 1.10,2013-09-05 20:10:00,
2013-09-05 13:25:00,68.3,60.0,30.07,NW,304,9.0,16.0,75,0.00,,,0.00,weatherlink.com 1.10,2013-09-05 20:25:00,
2013-09-05 13:40:00,68.5,60.0,30.07,North,5,3.0,16.0,75,0.00,,,0.00,weatherlink.com 1.10,2013-09-05 20:40:00,
2013-09-05 13:55:00,68.7,61.0,30.07,WNW,302,3.0,18.0,75,0.00,,,0.00,weatherlink.com 1.10,2013-09-05 20:55:00,
2013-09-05 14:10:00,68.8,60.0,30.07,North,10,4.0,17.0,74,0.00,,,0.00,weatherlink.com 1.10,2013-09-05 21:10:00,
2013-09-05 14:25:00,68.5,60.0,30.06,NNW,329,5.0,16.0,74,0.00,,,0.00,weatherlink.com 1.10,2013-09-05 21:25:00,
2013-09-05 14:49:00,69.5,60.0,30.05,NW,317,8.0,19.0,71,0.00,,,0.00,weatherlink.com 1.10,2013-09-05 21:49:00,
2013-09-05 14:55:00,69.2,60.0,30.05,NW,320,7.0,19.0,72,0.00,,,0.00,weatherlink.com 1.10,2013-09-05 21:55:00,
2013-09-05 15:10:00,68.7,60.0,30.05,NW,304,6.0,16.0,73,0.00,,,0.00,weatherlink.com 1.10,2013-09-05 22:10:00,
2013-09-05 15:30:00,69.0,60.0,30.05,WNW,298,9.0,15.0,73,0.00,,,0.00,weatherlink.com 1.10,2013-09-05 22:30:00,
2013-09-05 15:41:00,68.8,60.0,30.05,NW,325,5.0,18.0,73,0.00,,,0.00,weatherlink.com 1.10,2013-09-05 22:41:00,
2013-09-05 16:10:00,68.1,60.0,30.04,WNW,303,16.0,17.0,74,0.00,,,0.00,weatherlink.com 1.10,2013-09-05 23:10:00,
2013-09-05 16:25:00,67.9,60.0,30.04,WNW,300,7.0,21.0,75,0.00,,,0.00,weatherlink.com 1.10,2013-09-05 23:25:00,
2013-09-05 16:40:00,68.3,60.0,30.05,NW,308,5.0,19.0,74,0.00,,,0.00,weatherlink.com 1.10,2013-09-05 23:40:00,
2013-09-05 16:55:00,69.0,59.0,30.05,NW,309,8.0,17.0,71,0.00,,,0.00,weatherlink.com 1.10,2013-09-05 23:55:00,
2013-09-05 17:10:00,69.1,59.0,30.05,NNW,344,9.0,16.0,70,0.00,,,0.00,weatherlink.com 1.10,2013-09-06 00:10:00,
2013-09-05 17:25:00,69.9,59.0,30.05,WNW,284,8.0,16.0,68,0.00,,,0.00,weatherlink.com 1.10,2013-09-06 00:25:00,
2013-09-05 17:40:00,69.7,59.0,30.04,NW,313,7.0,15.0,69,0.00,,,0.00,weatherlink.com 1.10,2013-09-06 00:40:00,
2013-09-05 17:55:00,70.5,59.0,30.04,NW,307,4.0,18.0,67,0.00,,,0.00,weatherlink.com 1.10,2013-09-06 00:55:00,
2013-09-05 18:11:00,70.7,58.0,30.04,NW,304,14.0,18.0,64,0.00,,,0.00,weatherlink.com 1.10,2013-09-06 01:11:00,
2013-09-05 18:26:00,69.8,57.0,30.04,NW,321,6.0,14.0,65,0.00,,,0.00,weatherlink.com 1.10,2013-09-06 01:26:00,
2013-09-05 18:41:00,69.2,57.0,30.04,West,275,8.0,17.0,65,0.00,,,0.00,weatherlink.com 1.10,2013-09-06 01:41:00,
2013-09-05 18:56:00,67.8,57.0,30.04,NW,313,5.0,14.0,69,0.00,,,0.00,weatherlink.com 1.10,2013-09-06 01:56:00,
2013-09-05 19:11:00,66.5,57.0,30.04,NW,316,6.0,13.0,72,0.00,,,0.00,weatherlink.com 1.10,2013-09-06 02:11:00,
2013-09-05 19:26:00,65.4,57.0,30.05,WNW,299,5.0,11.0,74,0.00,,,0.00,weatherlink.com 1.10,2013-09-06 02:26:00,
2013-09-05 19:41:00,64.0,57.0,30.05,NNW,338,4.0,14.0,77,0.00,,,0.00,weatherlink.com 1.10,2013-09-06 02:41:00,
2013-09-05 19:56:00,63.6,57.0,30.05,NNW,330,6.0,8.0,79,0.00,,,0.00,weatherlink.com 1.10,2013-09-06 02:56:00,
2013-09-05 20:11:00,63.2,57.0,30.05,NNW,327,3.0,8.0,79,0.00,,,0.00,weatherlink.com 1.10,2013-09-06 03:11:00,
2013-09-05 20:26:00,62.7,57.0,30.05,North,349,4.0,8.0,81,0.00,,,0.00,weatherlink.com 1.10,2013-09-06 03:26:00,
2013-09-05 20:41:00,62.3,57.0,30.05,North,350,3.0,9.0,83,0.00,,,0.00,weatherlink.com 1.10,2013-09-06 03:41:00,
2013-09-05 20:56:00,61.5,57.0,30.05,North,350,2.0,5.0,84,0.00,,,0.00,weatherlink.com 1.10,2013-09-06 03:56:00,
2013-09-05 21:11:00,61.2,57.0,30.06,North,350,2.0,5.0,85,0.00,,,0.00,weatherlink.com 1.10,2013-09-06 04:11:00,
2013-09-05 21:26:00,60.7,56.0,30.06,North,350,2.0,4.0,85,0.00,,,0.00,weatherlink.com 1.10,2013-09-06 04:26:00,
2013-09-05 21:41:00,60.5,56.0,30.06,North,350,3.0,7.0,86,0.00,,,0.00,weatherlink.com 1.10,2013-09-06 04:41:00,
2013-09-05 21:56:00,60.7,56.0,30.07,North,350,5.0,7.0,85,0.00,,,0.00,weatherlink.com 1.10,2013-09-06 04:56:00,
2013-09-05 22:11:00,60.8,56.0,30.06,North,350,6.0,9.0,85,0.00,,,0.00,weatherlink.com 1.10,2013-09-06 05:11:00,
2013-09-05 22:26:00,61.9,56.0,30.06,North,11,7.0,11.0,82,0.00,,,0.00,weatherlink.com 1.10,2013-09-06 05:26:00,
2013-09-05 22:41:00,61.7,56.0,30.06,North,360,4.0,10.0,81,0.00,,,0.00,weatherlink.com 1.10,2013-09-06 05:41:00,
2013-09-05 22:56:00,61.4,56.0,30.06,North,355,4.0,11.0,81,0.00,,,0.00,weatherlink.com 1.10,2013-09-06 05:56:00,
2013-09-05 23:11:00,61.4,56.0,30.06,North,5,7.0,9.0,81,0.00,,,0.00,weatherlink.com 1.10,2013-09-06 06:11:00,
2013-09-05 23:26:00,61.2,56.0,30.06,North,5,4.0,8.0,82,0.00,,,0.00,weatherlink.com 1.10,2013-09-06 06:26:00,
2013-09-05 23:41:00,61.0,56.0,30.06,NNE,18,4.0,9.0,82,0.00,,,0.00,weatherlink.com 1.10,2013-09-06 06:41:00,
2013-09-05 23:56:00,60.9,55.0,30.07,NNE,18,4.0,8.0,82,0.00,,,0.00,weatherlink.com 1.10,2013-09-06 06:56:00,